User: anonymous   Login
Location: Unspecified
(0.0000°N, 0.0000°E)
Time: 17:49:42
(UTC+00:00)
Language:

CUTE 1.7 + AOD 2 - Orbit

View from above orbital plane
View from above orbital plane
View from above satellite
View from above satellite

Ground track
Ground track

The orbit data is extracted from the following two-line orbital elements,

1 32785U 08021C   21340.92598175  .00000508  00000-0  59717-4 0  9998
2 32785  97.6332 313.2906 0013623 146.0304 214.1788 14.88918621737831
Epoch (UTC): 06 December 2021 22:13:24
Eccentricity: 0.0013623
inclination: 97.6332°
perigee height: 592 km
apogee height: 611 km
right ascension of ascending node: 313.2906°
argument of perigee: 146.0304°
revolutions per day: 14.88918621
mean anomaly at epoch: 214.1788°
orbit number at epoch: 73783

The dashed part of the orbit path shows where the satellite is in the earth's shadow,  

DLR